Flag for Mexico Weather past 2 weeks in Cozumel, Quintana Roo, Mexico

Now
84 °F

Broken clouds.


Feels Like: 91 °F
Forecast: N/A
Wind: No wind

Location: Cozumel Civ / Mil

Current Time: May 24, 2015 at 5:28:06 PM

Latest Report: May 24, 2015 at 3:40 PM


Visibility: 8 mi

Pressure: 30.02 "Hg

Humidity: 70%

Dew point: 73 °F

Location of CozumelLocation

Historic Weather in Cozumel — Graph

°F

Cozumel temperature yesterday

Maximum temperature yesterday: 86 °F (at 2:55 PM)
Minimum temperature yesterday: 72 °F (at 4:43 AM)
Average temperature yesterday: 79 °F

Past Weeks' High & Low Weather Summary

 TemperatureHumidityPressure
High88 °F (May 17, 12:46 PM)100% (May 11, 1:51 AM)30.14 "Hg (May 11, 1:51 AM)
Low66 °F (May 20, 4:45 AM)55% (May 22, 2:47 PM)29.93 "Hg (May 20, 6:40 PM)
Average78 °F83%30.01 "Hg
* Reported May 9 4:46 PM — May 24 3:40 PM, Cozumel, Weather by CustomWeather, © 2015

Note: Actual official high and low records may vary slightly from our data, if they occured in-between our weather recording intervals... More about our weather records

Advertising

Cozumel weather history for previous 24 hours

 ConditionsComfort  
Time TempWeatherWind HumidityBarometerVisibility
3:40 PM
Sun, May 24
84 °FBroken clouds.No wind70%30.02 "Hg8 mi
2:40 PM86 °FBroken clouds.12 mph66%30.01 "Hg8 mi
1:55 PM86 °FPartly sunny.5 mph62%30.02 "Hg8 mi
12:46 PM86 °FCloudy.14 mph66%30.01 "Hg8 mi
11:53 AM86 °FBroken clouds.12 mph62%30.05 "Hg8 mi
10:45 AM86 °FBroken clouds.12 mph62%30.05 "Hg8 mi
9:47 AM82 °FCloudy.12 mph74%30.07 "Hg8 mi
8:53 AM81 °FCloudy.14 mph74%30.04 "Hg8 mi
7:47 AM79 °FCloudy.5 mph84%30.03 "Hg7 mi
6:47 AM72 °FOvercast.No wind100%30.00 "Hg7 mi
5:48 AM73 °FPassing clouds.No wind100%30.01 "Hg7 mi
2:43 AM73 °FPassing clouds.No wind100%30.02 "Hg7 mi
1:42 AM73 °FPassing clouds.No wind100%30.03 "Hg7 mi
12:40 AM75 °FPassing clouds.No wind100%30.02 "Hg7 mi
11:40 PM
Sat, May 23
75 °FPassing clouds.No wind100%30.06 "Hg7 mi
10:41 PM75 °FPassing clouds.No wind94%30.06 "Hg7 mi
8:47 PM77 °FPassing clouds.No wind89%30.06 "Hg7 mi
7:46 PM79 °FPartly sunny.No wind84%30.04 "Hg7 mi
5:50 PM82 °FScattered clouds.8 mph74%30.02 "Hg8 mi
Weather by CustomWeather, © 2015

See weather overviewHow to use our weather pages